Location: Guilderland
(42.7045°N, 73.9115°W)
Time: 22:00:21
(UTC+00:00)

FengYun 1-2 T - Pass Details

Date: 24 January 2020
Orbit: 846 x 881 km, 98.7° (Epoch: 19 February)

Event Time Altitude Azimuth Distance (km) Brightness Sun altitude
Rises 22:57:55 0° 163° (SSE) 3,449 7.4 -11.1°
Reaches altitude 10° 23:00:17 10° 162° (SSE) 2,519 6.7 -11.5°
Maximum altitude 23:05:54 86° 74° (ENE) 887 4.3 -12.5°
Drops below altitude 10° 23:11:36 10° 347° (NNW) 2,548 6.7 -13.5°
Sets 23:14:00 0° 347° (NNW) 3,492 7.4 -14.0°
